View from above orbital plane
|
View from above satellite
|
Ground track
|
The orbit data is extracted from the following two-line orbital elements,
1 38081U 12006E 13141.23118298 .00101365 44133-5 20935-2 0 890
2 38081 069.4676 247.2183 0624623 173.3310 187.6654 14.43833046 65844
| Epoch (UTC): | 21 May 2013 05:32:54 |
| Eccentricity: | 0.0624623 |
| inclination: | 69.4676° |
| perigee height: | 301 km |
| apogee height: | 1191 km |
| right ascension of ascending node: | 247.2183° |
| argument of perigee: | 173.3310° |
| revolutions per day: | 14.43833046 |
| mean anomaly at epoch: | 187.6654° |
| orbit number at epoch: | 6584 |
The dashed part of the orbit path shows where the satellite is in the earth's shadow,
|
|